| time (UTC) | temp F | wind direction | speed MPH | gust MPH | rain 1hr in | rain 24hr in | rain mn in | humidity % | barometer mb |
| 20260503005600 | 44 | 248 | 0.0 | 2.0 | 0.00 | 0.00 | 0.00 | 76 | 1005.0 |
| 20260503004859 | 44 | 249 | 0.0 | 2.0 | 0.00 | 0.00 | 0.00 | 76 | 1005.1 |
| 20260503004158 | 44 | 248 | 0.0 | 1.0 | 0.00 | 0.00 | 0.00 | 76 | 1005.1 |
| 20260503003456 | 44 | 248 | 1.0 | 2.0 | 0.00 | 0.00 | 0.00 | 76 | 1005.1 |
| 20260503002754 | 44 | 257 | 1.0 | 2.0 | 0.00 | 0.00 | 0.00 | 76 | 1005.3 |
| 20260503002050 | 43 | 255 | 1.0 | 2.0 | 0.00 | 0.00 | 0.00 | 75 | 1005.5 |
| 20260503001349 | 43 | 248 | 0.0 | 0.0 | 0.00 | 0.00 | 0.00 | 74 | 1005.5 |
| 20260503000658 | 44 | 248 | 0.0 | 0.0 | 0.00 | 0.00 | 0.00 | 73 | 1005.6 |
| 20260502235957 | 44 | 248 | 1.0 | 2.0 | 0.00 | 0.00 | 0.00 | 72 | 1005.5 |
| 20260502235256 | 44 | 248 | 1.0 | 3.0 | 0.00 | 0.00 | 0.00 | 72 | 1005.6 |
| 20260502234553 | 44 | 248 | 1.0 | 1.0 | 0.00 | 0.00 | 0.00 | 70 | 1005.8 |
| 20260502233851 | 44 | 248 | 0.0 | 1.0 | 0.00 | 0.00 | 0.00 | 68 | 1005.8 |
| 20260502233150 | 45 | 248 | 0.0 | 1.0 | 0.00 | 0.00 | 0.00 | 67 | 1005.8 |
| 20260502232459 | 45 | 248 | 0.0 | 1.0 | 0.00 | 0.00 | 0.00 | 66 | 1005.8 |
| 20260502231757 | 45 | 248 | 1.0 | 2.0 | 0.00 | 0.00 | 0.00 | 65 | 1005.7 |
| 20260502231056 | 46 | 248 | 0.0 | 0.0 | 0.00 | 0.00 | 0.00 | 63 | 1005.8 |
| 20260502230354 | 47 | 248 | 0.0 | 0.0 | 0.00 | 0.00 | 0.00 | 63 | 1005.8 |
| 20260502225653 | 47 | 248 | 2.0 | 3.0 | 0.00 | 0.00 | 0.00 | 63 | 1006.0 |
| 20260502224949 | 47 | 248 | 2.0 | 2.0 | 0.00 | 0.00 | 0.00 | 63 | 1006.0 |
| 20260502224259 | 47 | 248 | 0.0 | 1.0 | 0.00 | 0.00 | 0.00 | 62 | 1006.2 |
| 20260502223557 | 46 | 248 | 0.0 | 1.0 | 0.00 | 0.00 | 0.00 | 62 | 1006.3 |
| 20260502222855 | 46 | 248 | 0.0 | 0.0 | 0.00 | 0.00 | 0.00 | 61 | 1006.5 |
| 20260502222153 | 46 | 248 | 1.0 | 1.0 | 0.00 | 0.00 | 0.00 | 61 | 1006.5 |
| 20260502221450 | 46 | 248 | 0.0 | 1.0 | 0.00 | 0.00 | 0.00 | 61 | 1006.6 |
| 20260502220749 | 46 | 248 | 0.0 | 0.0 | 0.00 | 0.00 | 0.00 | 60 | 1006.6 |
| 20260502220059 | 46 | 248 | 0.0 | 0.0 | 0.00 | 0.00 | 0.00 | 59 | 1006.6 |
| 20260502215357 | 46 | 248 | 0.0 | 0.0 | 0.00 | 0.00 | 0.00 | 58 | 1006.7 |
| 20260502214655 | 46 | 248 | 0.0 | 0.0 | 0.00 | 0.00 | 0.00 | 58 | 1006.7 |
| 20260502213953 | 46 | 248 | 0.0 | 0.0 | 0.00 | 0.00 | 0.00 | 57 | 1006.8 |
| 20260502213252 | 47 | 248 | 0.0 | 0.0 | 0.00 | 0.00 | 0.00 | 57 | 1006.8 |
| 20260502212550 | 47 | 248 | 0.0 | 0.0 | 0.00 | 0.00 | 0.00 | 56 | 1006.8 |
| 20260502211900 | 47 | 248 | 0.0 | 0.0 | 0.00 | 0.00 | 0.00 | 55 | 1006.7 |
| 20260502211158 | 47 | 248 | 0.0 | 0.0 | 0.00 | 0.00 | 0.00 | 54 | 1006.8 |
| 20260502210457 | 48 | 248 | 0.0 | 0.0 | 0.00 | 0.00 | 0.00 | 53 | 1006.8 |
| 20260502205756 | 48 | 248 | 0.0 | 0.0 | 0.00 | 0.00 | 0.00 | 53 | 1007.0 |
| 20260502205055 | 48 | 248 | 0.0 | 0.0 | 0.00 | 0.00 | 0.00 | 52 | 1007.0 |
| 20260502204353 | 48 | 248 | 0.0 | 1.0 | 0.00 | 0.00 | 0.00 | 51 | 1007.0 |
| 20260502203650 | 48 | 248 | 0.0 | 1.0 | 0.00 | 0.00 | 0.00 | 51 | 1007.0 |
| 20260502202949 | 48 | 248 | 0.0 | 0.0 | 0.00 | 0.00 | 0.00 | 51 | 1007.0 |
| 20260502202300 | 48 | 248 | 0.0 | 0.0 | 0.00 | 0.00 | 0.00 | 51 | 1007.1 |
| 20260502201558 | 48 | 248 | 0.0 | 0.0 | 0.00 | 0.00 | 0.00 | 51 | 1007.0 |
| 20260502200854 | 48 | 248 | 0.0 | 0.0 | 0.00 | 0.00 | 0.00 | 51 | 1007.0 |
| 20260502200152 | 49 | 248 | 0.0 | 0.0 | 0.00 | 0.00 | 0.00 | 51 | 1007.1 |
| 20260502195449 | 49 | 248 | 0.0 | 0.0 | 0.00 | 0.00 | 0.00 | 50 | 1007.1 |
| 20260502194759 | 50 | 248 | 0.0 | 0.0 | 0.00 | 0.00 | 0.00 | 50 | 1007.0 |
| 20260502194057 | 50 | 248 | 0.0 | 0.0 | 0.00 | 0.00 | 0.00 | 50 | 1007.0 |
| 20260502193353 | 50 | 248 | 0.0 | 0.0 | 0.00 | 0.00 | 0.00 | 50 | 1006.9 |
| 20260502192652 | 51 | 248 | 0.0 | 0.0 | 0.00 | 0.00 | 0.00 | 50 | 1006.9 |
| 20260502192001 | 51 | 248 | 0.0 | 0.0 | 0.00 | 0.00 | 0.00 | 48 | 1006.8 |
| 20260502191258 | 52 | 248 | 0.0 | 0.0 | 0.00 | 0.00 | 0.00 | 48 | 1006.9 |
| 20260502190555 | 52 | 248 | 0.0 | 0.0 | 0.00 | 0.00 | 0.00 | 48 | 1006.8 |
| 20260502185852 | 53 | 248 | 0.0 | 0.0 | 0.00 | 0.00 | 0.00 | 47 | 1007.0 |
| 20260502185150 | 54 | 248 | 0.0 | 0.0 | 0.00 | 0.00 | 0.00 | 46 | 1006.8 |
| 20260502184449 | 54 | 248 | 0.0 | 2.0 | 0.00 | 0.00 | 0.00 | 45 | 1006.8 |
| 20260502183758 | 55 | 248 | 1.0 | 2.0 | 0.00 | 0.00 | 0.00 | 44 | 1006.7 |
| 20260502183055 | 56 | 248 | 0.0 | 2.0 | 0.00 | 0.00 | 0.00 | 43 | 1006.7 |
| 20260502182352 | 56 | 248 | 1.0 | 2.0 | 0.00 | 0.00 | 0.00 | 42 | 1006.7 |
| 20260502181650 | 57 | 248 | 1.0 | 2.0 | 0.00 | 0.00 | 0.00 | 40 | 1006.7 |
| 20260502181000 | 58 | 291 | 0.0 | 3.0 | 0.00 | 0.00 | 0.00 | 39 | 1006.6 |
| 20260502180258 | 59 | 235 | 1.0 | 2.0 | 0.00 | 0.00 | 0.00 | 38 | 1006.5 |
| 20260502163853 | 65 | 252 | 2.0 | 3.0 | 0.00 | 0.00 | 0.00 | 36 | 1005.5 |
| 20260502163153 | 65 | 258 | 1.0 | 3.0 | 0.00 | 0.00 | 0.00 | 35 | 1005.5 |
| 20260502162452 | 66 | 293 | 2.0 | 2.0 | 0.00 | 0.00 | 0.00 | 35 | 1005.5 |
| 20260502161800 | 66 | 299 | 3.0 | 6.0 | 0.00 | 0.00 | 0.00 | 35 | 1005.5 |
| 20260502161057 | 66 | 3 | 3.0 | 7.0 | 0.00 | 0.00 | 0.00 | 36 | 1005.5 |
| 20260502160355 | 67 | 294 | 2.0 | 5.0 | 0.00 | 0.00 | 0.00 | 36 | 1005.5 |
| 20260502152151 | 69 | 262 | 1.0 | 3.0 | 0.00 | 0.00 | 0.00 | 34 | 1005.7 |
| 20260502151449 | 69 | 345 | 3.0 | 8.0 | 0.00 | 0.00 | 0.00 | 33 | 1005.7 |
| 20260502150757 | 70 | 7 | 2.0 | 3.0 | 0.00 | 0.00 | 0.00 | 33 | 1005.8 |
| 20260502130152 | 83 | 356 | 2.0 | 7.0 | 0.00 | 0.00 | 0.00 | 28 | 1006.3 |
| 20260502123355 | 91 | 297 | 2.0 | 3.0 | 0.00 | 0.00 | 0.00 | 26 | 1006.9 |
| 20260502122652 | 92 | 271 | 2.0 | 5.0 | 0.00 | 0.00 | 0.00 | 26 | 1007.0 |
| 20260502121950 | 90 | 295 | 2.0 | 5.0 | 0.00 | 0.00 | 0.00 | 27 | 1007.1 |
| 20260502121249 | 90 | 330 | 3.0 | 8.0 | 0.00 | 0.00 | 0.00 | 27 | 1007.2 |
| 20260502120559 | 88 | 20 | 1.0 | 2.0 | 0.00 | 0.00 | 0.00 | 27 | 1007.4 |
| 20260502115858 | 87 | 256 | 3.0 | 7.0 | 0.00 | 0.00 | 0.00 | 28 | 1007.2 |
| 20260502115153 | 87 | 17 | 3.0 | 6.0 | 0.00 | 0.00 | 0.00 | 28 | 1007.4 |
| 20260502114451 | 87 | 308 | 2.0 | 6.0 | 0.00 | 0.00 | 0.00 | 28 | 1007.4 |
| 20260502113749 | 87 | 250 | 2.0 | 8.0 | 0.00 | 0.00 | 0.00 | 28 | 1007.5 |
| 20260502113058 | 87 | 246 | 1.0 | 3.0 | 0.00 | 0.00 | 0.00 | 29 | 1007.5 |
| 20260502112356 | 86 | 13 | 2.0 | 5.0 | 0.00 | 0.00 | 0.00 | 30 | 1007.6 |
| 20260502111653 | 85 | 245 | 2.0 | 8.0 | 0.00 | 0.00 | 0.00 | 31 | 1007.8 |
| 20260502110951 | 83 | 331 | 3.0 | 7.0 | 0.00 | 0.00 | 0.00 | 32 | 1007.9 |
| 20260502110248 | 82 | 323 | 3.0 | 5.0 | 0.00 | 0.00 | 0.00 | 33 | 1008.0 |
| 20260502105557 | 82 | 300 | 3.0 | 7.0 | 0.00 | 0.00 | 0.00 | 34 | 1008.1 |
| 20260502104854 | 82 | 334 | 3.0 | 6.0 | 0.00 | 0.00 | 0.00 | 34 | 1008.2 |
| 20260502104152 | 80 | 17 | 2.0 | 5.0 | 0.00 | 0.00 | 0.00 | 36 | 1008.2 |
| 20260502103449 | 79 | 340 | 1.0 | 3.0 | 0.00 | 0.00 | 0.00 | 36 | 1008.3 |
| 20260502102759 | 78 | 235 | 2.0 | 6.0 | 0.00 | 0.00 | 0.00 | 37 | 1008.4 |
| 20260502102055 | 77 | 13 | 2.0 | 3.0 | 0.00 | 0.00 | 0.00 | 37 | 1008.4 |
| 20260502101353 | 76 | 347 | 2.0 | 2.0 | 0.00 | 0.00 | 0.00 | 38 | 1008.6 |
| 20260502100651 | 75 | 358 | 2.0 | 3.0 | 0.00 | 0.00 | 0.00 | 39 | 1008.7 |
| 20260502091054 | 73 | 357 | 3.0 | 3.0 | 0.00 | 0.00 | 0.00 | 40 | 1009.0 |
| 20260502090352 | 73 | 7 | 3.0 | 6.0 | 0.00 | 0.00 | 0.00 | 41 | 1009.2 |
| 20260502071150 | 73 | 7 | 1.0 | 3.0 | 0.00 | 0.00 | 0.00 | 43 | 1010.5 |
| 20260502070458 | 73 | 251 | 3.0 | 8.0 | 0.00 | 0.00 | 0.00 | 42 | 1010.4 |
| 20260502065756 | 72 | 269 | 2.0 | 2.0 | 0.00 | 0.00 | 0.00 | 44 | 1010.5 |
| 20260502065055 | 71 | 274 | 2.0 | 3.0 | 0.00 | 0.00 | 0.00 | 44 | 1010.5 |
| 20260502064352 | 70 | 308 | 2.0 | 3.0 | 0.00 | 0.00 | 0.00 | 45 | 1010.6 |
| 20260502063650 | 69 | 0 | 3.0 | 5.0 | 0.00 | 0.00 | 0.00 | 47 | 1010.5 |
| 20260502062959 | 67 | 346 | 2.0 | 2.0 | 0.00 | 0.00 | 0.00 | 48 | 1010.5 |
| 20260502062256 | 67 | 352 | 2.0 | 3.0 | 0.00 | 0.00 | 0.00 | 49 | 1010.6 |
| 20260502061554 | 66 | 327 | 2.0 | 3.0 | 0.00 | 0.00 | 0.00 | 50 | 1010.6 |
| 20260502060851 | 64 | 250 | 2.0 | 2.0 | 0.00 | 0.00 | 0.00 | 50 | 1010.7 |
| 20260502060148 | 62 | 260 | 2.0 | 6.0 | 0.00 | 0.00 | 0.00 | 53 | 1010.8 |
| 20260502055459 | 60 | 352 | 6.0 | 7.0 | 0.00 | 0.00 | 0.00 | 53 | 1010.8 |
| 20260502054758 | 59 | 8 | 3.0 | 5.0 | 0.00 | 0.00 | 0.00 | 55 | 1010.6 |
| 20260502054055 | 58 | 270 | 2.0 | 8.0 | 0.00 | 0.00 | 0.00 | 57 | 1010.7 |
| 20260502053353 | 58 | 273 | 5.0 | 6.0 | 0.00 | 0.00 | 0.00 | 58 | 1010.7 |
| 20260502052652 | 57 | 339 | 2.0 | 3.0 | 0.00 | 0.00 | 0.00 | 62 | 1010.8 |
| 20260502051951 | 55 | 265 | 2.0 | 3.0 | 0.00 | 0.00 | 0.00 | 64 | 1011.0 |
| 20260502051250 | 54 | 248 | 2.0 | 3.0 | 0.00 | 0.00 | 0.00 | 68 | 1011.1 |
| 20260502050559 | 52 | 248 | 2.0 | 2.0 | 0.00 | 0.00 | 0.00 | 71 | 1011.1 |
| 20260502045856 | 50 | 248 | 1.0 | 2.0 | 0.00 | 0.00 | 0.00 | 72 | 1011.1 |
| 20260502045154 | 49 | 248 | 1.0 | 2.0 | 0.00 | 0.00 | 0.00 | 73 | 1011.1 |
| 20260502044453 | 49 | 248 | 1.0 | 2.0 | 0.00 | 0.00 | 0.00 | 74 | 1011.1 |
| 20260502043749 | 48 | 248 | 1.0 | 1.0 | 0.00 | 0.00 | 0.00 | 75 | 1011.2 |
| 20260502043059 | 47 | 248 | 0.0 | 1.0 | 0.00 | 0.00 | 0.00 | 76 | 1011.3 |
| 20260502042356 | 46 | 248 | 1.0 | 2.0 | 0.00 | 0.00 | 0.00 | 77 | 1011.3 |
| 20260502041654 | 46 | 248 | 1.0 | 1.0 | 0.00 | 0.00 | 0.00 | 78 | 1011.5 |
| 20260502040952 | 45 | 248 | 0.0 | 1.0 | 0.00 | 0.00 | 0.00 | 79 | 1011.6 |
| 20260502040250 | 43 | 248 | 0.0 | 0.0 | 0.00 | 0.00 | 0.00 | 81 | 1011.7 |
| 20260502035600 | 42 | 248 | 0.0 | 0.0 | 0.00 | 0.00 | 0.00 | 82 | 1011.7 |
| 20260502034857 | 41 | 248 | 0.0 | 0.0 | 0.00 | 0.00 | 0.00 | 83 | 1011.8 |
| 20260502034156 | 40 | 248 | 1.0 | 3.0 | 0.00 | 0.00 | 0.00 | 83 | 1011.6 |
| 20260502033453 | 40 | 248 | 1.0 | 1.0 | 0.00 | 0.00 | 0.00 | 83 | 1011.8 |
| 20260502032751 | 40 | 248 | 1.0 | 2.0 | 0.00 | 0.00 | 0.00 | 83 | 1011.9 |
| 20260502032049 | 39 | 248 | 1.0 | 1.0 | 0.00 | 0.00 | 0.00 | 83 | 1011.9 |
| 20260502031359 | 38 | 248 | 0.0 | 0.0 | 0.00 | 0.00 | 0.00 | 83 | 1012.1 |
| 20260502030656 | 38 | 248 | 0.0 | 0.0 | 0.00 | 0.00 | 0.00 | 82 | 1012.2 |
| 20260502025954 | 39 | 248 | 0.0 | 0.0 | 0.00 | 0.00 | 0.00 | 82 | 1012.3 |
| 20260502025252 | 39 | 248 | 0.0 | 0.0 | 0.00 | 0.00 | 0.00 | 82 | 1012.3 |
| 20260502024551 | 39 | 248 | 0.0 | 0.0 | 0.00 | 0.00 | 0.00 | 82 | 1012.3 |
| 20260502023848 | 39 | 248 | 0.0 | 0.0 | 0.00 | 0.00 | 0.00 | 82 | 1012.4 |
| 20260502023158 | 39 | 248 | 0.0 | 0.0 | 0.00 | 0.00 | 0.00 | 82 | 1012.4 |
| 20260502022456 | 39 | 248 | 0.0 | 0.0 | 0.00 | 0.00 | 0.00 | 81 | 1012.3 |
| 20260502021752 | 39 | 248 | 0.0 | 0.0 | 0.00 | 0.00 | 0.00 | 80 | 1012.3 |
| 20260502021050 | 40 | 248 | 0.0 | 0.0 | 0.00 | 0.00 | 0.00 | 80 | 1012.3 |
| 20260502020349 | 39 | 248 | 0.0 | 0.0 | 0.00 | 0.00 | 0.00 | 80 | 1012.4 |
| 20260502015659 | 39 | 248 | 0.0 | 0.0 | 0.00 | 0.00 | 0.00 | 80 | 1012.5 |
| 20260502014957 | 40 | 248 | 0.0 | 0.0 | 0.00 | 0.00 | 0.00 | 80 | 1012.5 |
| 20260502014254 | 40 | 248 | 0.0 | 0.0 | 0.00 | 0.00 | 0.00 | 80 | 1012.5 |
| 20260502013553 | 40 | 248 | 0.0 | 0.0 | 0.00 | 0.00 | 0.00 | 79 | 1012.7 |
| 20260502012851 | 40 | 248 | 0.0 | 0.0 | 0.00 | 0.00 | 0.00 | 78 | 1012.7 |
| 20260502012150 | 40 | 248 | 0.0 | 0.0 | 0.00 | 0.00 | 0.00 | 77 | 1012.7 |
| 20260502011459 | 41 | 248 | 0.0 | 0.0 | 0.00 | 0.00 | 0.00 | 76 | 1012.7 |
| 20260502010756 | 41 | 248 | 0.0 | 0.0 | 0.00 | 0.00 | 0.00 | 76 | 1012.8 |
| 20260502010054 | 42 | 248 | 0.0 | 0.0 | 0.00 | 0.00 | 0.00 | 75 | 1012.7 |